Whiting Fld NAS, FL

2:51 PM CST on November 17, 2019 (GMT -0600)
Whiting Field Naval Air Station (North)

Weather History for KNSE - September, 2019

Change the Weather History Date:

Monday, September 2, 2019

  Actual Average Record
Temperature  
Mean Temperature 82 °F -  
Max Temperature 91 °F 86 °F 96 °F (2015)
Min Temperature 72 °F 69 °F 46 °F (1999)
Cooling Degree Days 16    
Growing Degree Days 32 (Base 50)    
Moisture  
Dew Point 73 °F    
Average Humidity 79    
Maximum Humidity 100    
Minimum Humidity 55    
Precipitation  
Precipitation 0.00 in - - ()
Sea Level Pressure  
Sea Level Pressure 29.92 in    
Wind  
Wind Speed 4 mph (NNE)    
Max Wind Speed 9 mph    
Max Gust Speed 17 mph    
Visibility 10 miles    
Events      
Averages and records for this station are not official NWS values.
T = Trace of Precipitation, MM = Missing Value Source: NWS Daily Summary

Daily Weather History Graph

Daily Weather History Graph

Search for Another Location

Airport or City:

Astronomy

Sep. 02, 2019 Rise Set
Actual Time 6:24 AM CDT 7:10 PM CDT
Civil Twilight 6:00 AM CDT 7:34 PM CDT
Nautical Twilight 5:31 AM CDT 8:03 PM CDT
Astronomical Twilight 5:01 AM CDT 8:32 PM CDT
Moon 9:53 AM CDT (9/2) 9:47 PM CDT (9/2)
Length of Visible Light 13h 34m
Length of Day
12h 45m
Waxing Crescent, 15% of the Moon is Illuminated
Sep 2
Waxing Crescent
Sep 5
First Quarter
Sep 13
Full
Sep 21
Last Quarter
Sep 28
New

Hourly Weather History & Observations

Time (CDT) Temp. Heat Index Dew Point Humidity Pressure Visibility Wind Dir Wind Speed Gust Speed Precip Events Conditions
12:56 AM 75.9 °F - 73.0 °F 91% 29.93 in 10.0 mi Variable 4.6 mph - N/A   Clear
1:56 AM 73.9 °F - 73.0 °F 97% 29.93 in 10.0 mi ENE 3.5 mph - N/A   Clear
2:56 AM 73.9 °F - 73.0 °F 97% 29.91 in 10.0 mi NE 3.5 mph - N/A   Clear
3:56 AM 73.0 °F - 72.0 °F 96% 29.91 in 10.0 mi NNE 3.5 mph - N/A   Clear
4:56 AM 73.0 °F - 72.0 °F 96% 29.93 in 10.0 mi North 3.5 mph - N/A   Clear
5:56 AM 72.0 °F - 72.0 °F 100% 29.94 in 10.0 mi North 3.5 mph - N/A   Clear
6:56 AM 72.0 °F - 72.0 °F 100% 29.95 in 10.0 mi NNE 3.5 mph - N/A   Clear
7:56 AM 75.9 °F - 73.0 °F 91% 29.96 in 10.0 mi Variable 4.6 mph - N/A   Clear
8:56 AM 80.1 °F 84.5 °F 73.9 °F 81% 29.97 in 10.0 mi Variable 4.6 mph - N/A   Partly Cloudy
9:56 AM 82.9 °F 90.2 °F 75.0 °F 77% 29.96 in 10.0 mi Variable 5.8 mph - N/A   Partly Cloudy
10:56 AM 86.0 °F 95.1 °F 75.0 °F 70% 29.96 in 10.0 mi Variable 6.9 mph - N/A   Partly Cloudy
11:56 AM 90.0 °F 100.2 °F 75.0 °F 61% 29.95 in 10.0 mi ENE 8.1 mph - N/A   Scattered Clouds
12:56 PM 90.0 °F 99.0 °F 73.9 °F 59% 29.93 in 10.0 mi East 9.2 mph 16.1 mph N/A   Partly Cloudy
1:56 PM 90.0 °F 97.9 °F 73.0 °F 57% 29.91 in 10.0 mi NE 8.1 mph 17.3 mph N/A   Scattered Clouds
2:56 PM 90.0 °F 97.9 °F 73.0 °F 57% 29.89 in 10.0 mi Variable 3.5 mph - N/A   Scattered Clouds
3:56 PM 91.0 °F 100.4 °F 73.9 °F 57% 29.88 in 10.0 mi Variable 3.5 mph - N/A   Mostly Cloudy
4:56 PM 90.0 °F 96.9 °F 72.0 °F 55% 29.87 in 10.0 mi Variable 6.9 mph - N/A   Clear
5:56 PM 89.1 °F 97.0 °F 73.0 °F 59% 29.88 in 10.0 mi Variable 3.5 mph - N/A   Clear
6:56 PM 84.9 °F 91.4 °F 73.0 °F 67% 29.88 in 10.0 mi NNE 3.5 mph - N/A   Clear
7:56 PM 80.1 °F 84.2 °F 73.0 °F 79% 29.89 in 10.0 mi North 3.5 mph - N/A   Clear
8:56 PM 78.1 °F - 73.0 °F 84% 29.90 in 10.0 mi North 3.5 mph - N/A   Clear
9:56 PM 77.0 °F - 72.0 °F 84% 29.90 in 10.0 mi North 3.5 mph - N/A   Clear
10:56 PM 75.0 °F - 72.0 °F 90% 29.90 in 10.0 mi NNE 3.5 mph - N/A   Clear
11:56 PM 73.9 °F - 72.0 °F 93% 29.89 in 10.0 mi Calm Calm - N/A   Clear